This demonstration page uses our WeatherBlox Daily Observations layout. Learn more.

Left ArrowRight Arrow

36.19886, -115.1175

Hourly Observations for December 7, 2018

Temp ( °F °C ) Dew Point ( °F °C ) Humidity (%) Winds ( mph kmh ) Pressure ( in mb ) Visibility ( mi km ) Precip ( " mm )
12:53 am 00:53 Cloudy 50 10 42 5.6 74 74 W 3 6 30.11 1020 10 16.0934 N/A
1:53 am 01:53 Cloudy with Light Rain 49 9.4 44 6.7 83 83 N N/A 30.12 1020 10 16.0934 0.01 0.254
2:53 am 02:53 Cloudy with Light Rain 48 8.9 45 7.2 89 89 N N/A 30.13 1020 8 12.87472 0.04 1.016
3:53 am 03:53 Cloudy with Light Rain 47 8.3 44 6.7 90 90 NNW 5 7 30.13 1020 10 16.0934 0.04 1.016
4:53 am 04:53 Cloudy with Light Rain 47 8.3 44 6.7 90 90 NNW 7 11 30.14 1021 10 16.0934 0.03 0.762
5:53 am 05:53 Cloudy 48 8.9 44 6.7 86 86 N 5 7 30.16 1021 10 16.0934 N/A
6:53 am 06:53 Cloudy 49 9.4 43 6.1 80 80 NNW 7 11 30.17 1022 10 16.0934 N/A
7:53 am 07:53 Cloudy 50 10 43 6.1 77 77 NNW 3 6 30.19 1022 10 16.0934 N/A
8:53 am 08:53 Cloudy 51 10.6 43 6.1 74 74 N 8 13 30.2 1023 10 16.0934 N/A
9:53 am 09:53 Cloudy 48 8.9 43 6.1 83 83 N N/A 30.22 1023 10 16.0934 N/A
10:53 am 10:53 Cloudy 53 11.7 44 6.7 72 72 ENE 3 6 30.2 1023 10 16.0934 N/A
11:53 am 11:53 Cloudy 54 12.2 44 6.7 69 69 VRB 3 6 30.18 1022 10 16.0934 N/A
12:53 pm 12:53 Cloudy 54 12.2 43 6.1 67 67 N N/A 30.16 1022 10 16.0934 N/A
1:53 pm 13:53 Cloudy 55 12.8 43 6.1 64 64 N N/A 30.16 1021 10 16.0934 N/A
2:53 pm 14:53 Cloudy 56 13.3 43 6.1 62 62 N N/A 30.17 1022 10 16.0934 N/A
3:53 pm 15:53 Cloudy 56 13.3 43 6.1 62 62 VRB 3 6 30.18 1022 10 16.0934 N/A
4:53 pm 16:53 Clear 54 12.2 45 7.2 72 72 S 3 6 30.19 1022 10 16.0934 N/A
5:53 pm 17:53 Clear 52 11.1 44 6.7 75 75 SW 3 6 30.22 1023 10 16.0934 N/A
6:53 pm 18:53 Clear 50 10 44 6.7 80 80 WNW 5 7 30.24 1024 10 16.0934 N/A
7:53 pm 19:53 Cloudy 49 9.4 44 6.7 83 83 NW 5 7 30.26 1025 10 16.0934 N/A
8:53 pm 20:53 Mostly Cloudy 47 8.3 44 6.7 90 90 W 3 6 30.27 1025 10 16.0934 N/A
9:53 pm 21:53 Clear 47 8.3 43 6.1 86 86 WNW 5 7 30.28 1025 10 16.0934 N/A
10:53 pm 22:53 Clear 47 8.3 42 5.6 83 83 WNW 6 9 30.28 1025 10 16.0934 N/A
11:53 pm 23:53 Clear 45 7.2 41 5 86 86 WNW 7 11 30.28 1025 10 16.0934 N/A

Powered by AerisWeather